Regional Weather Roundup
Issued by NWS State College, PA

Home | Current Version | Previous Version | Text Only | Print | Product List | Glossary On
Versions: 1 2 3 4 5 6 7 8 9 10 11 12 13 14 15 16 17 18 19 20 21 22 23 24 25 26 27 28 29 30 31 32 33 34 35 36 37 38 39 40 41 42 43 44 45 46 47 48 49 50
000
ASUS41 KCTP 202210
RWRCTP

REGIONAL WEATHER ROUNDUP
NATIONAL WEATHER SERVICE STATE COLLEGE PA
600 PM EDT SAT JUL 20 2019

Note: "fair" indicates few or no clouds below 12,000 feet with no
significant weather and/or obstructions to visibility.

* = STATION THAT DOES NOT REPORT PRECIPITATION /E.G. RAIN...SNOW...ETC/
    THUNDER OR FOG.

PAZ002>004-007>009-013>016-020>023-029>032-202300-
WESTERN PENNSYLVANIA

CITY           SKY/WX    TMP DP  RH WIND       PRES   REMARKS
ERIE           FAIR      89  70  53 W8        29.91R
MEADVILLE      FAIR      89  72  56 W9        29.95R HX  96
FRANKLIN*      FAIR      86  76  71 W6        29.97R HX  96
NEW CASTLE     FAIR      87  78  74 VRB5      29.95R HX 100
BEAVER COUNTY  NOT AVBL
BUTLER*        FAIR      88  77  69 W5        29.96R HX 100
PITTSBURGH INT PTSUNNY   88  76  67 W9        29.95R HX  99
PITTSBURGH     FAIR      88  75  65 W9G17     29.95R HX  97
INDIANA*       MOSUNNY   90  75  62 NW10G17   29.99R HX 100
LATROBE        PTSUNNY   88  75  66 SW8       29.94R HX  97
WASHINGTON CO* PTSUNNY   88  76  67 SW7       29.99R HX  99
$$

PAZ004>006-010>012-017>019-024>028-033>037-041-042-045-046-049>053-202300-
CENTRAL PENNSYLVANIA

CITY           SKY/WX    TMP DP  RH WIND       PRES   REMARKS
BRADFORD       PTSUNNY   83  69  62 W7        29.98R
DUBOIS         FAIR      85  73  67 W12       29.97R
CLEARFIELD     FAIR      87  75  67 W6        29.94R HX  96
JOHNSTOWN      PTSUNNY   85  72  65 W12G18    30.00R
ALTOONA        FAIR      89  74  60 W6        29.94S HX  98
STATE COLLEGE  SUNNY     88  73  62 W9        29.90S HX  96
WILLIAMSPORT   FAIR      92  72  51 SW10      29.82S HX  99
SELINSGROVE    FAIR      92  74  55 VRB6      29.84S HX 101
FT INDIANTOWN  FAIR      94  75  53 W8        29.85R HX 105
CAPITAL CITY   FAIR      96  73  47 W9        29.84R HX 105
HARRISBURG     FAIR      93  75  55 SW8       29.83R HX 104
YORK           FAIR      91  74  57 W6        29.86S HX 100
$$

PAZ038>040-043-044-047-048-054-055-060>062-067>071-202300-
EASTERN PENNSYLVANIA

CITY           SKY/WX    TMP DP  RH WIND       PRES   REMARKS
SCRANTON       FAIR      93  74  53 W10       29.85R HX 103
MOUNT POCONO   PTSUNNY   85  74  69 SW8       29.92R
ALLENTOWN      FAIR      93  75  55 W12       29.83R HX 104
QUAKERTOWN*    CLEAR     91  77  62 VRB5G12   29.85R HX 105
READING        FAIR      93  76  57 W9        29.82S HX 105
LANCASTER      FAIR      92  75  57 W9        29.84S HX 103
COATESVILLE    FAIR      90  77  66 SW6       29.88S HX 102
POTTSTOWN      FAIR      91  74  57 W9        29.85R HX 100
BLUE BELL      FAIR      94  73  51 SW8G17    29.84R HX 103
DOYLESTOWN     FAIR      94  72  48 SW8       29.82R HX 102
WILLOW GROVE   NOT AVBL
NORTH PHILA    FAIR      97  71  42 W15G21    29.82R HX 104
PHILADELPHIA   FAIR      96  74  48 SW14      29.82R HX 107
$$



USA.gov is the U.S. government's official web portal to all federal, state and local government web resources and services.